Location: Lafig�re
(44.4503°N, 4.0357°E)
Time: 03:34:08
(UTC+00:00)

Transit 4A - Pass Details

Date: 22 January 2021
Orbit: 866 x 978 km, 66.8° (Epoch: 02 March)

Event Time Altitude Azimuth Distance (km) Brightness Sun altitude
Rises 02:11:15 0° 332° (NNW) 3,650 - -52.5°
Reaches altitude 10° 02:14:33 10° 348° (NNW) 2,683 - -52.0°
Maximum altitude 02:19:10 21° 36° (NE) 1,972 - -51.2°
Drops below altitude 10° 02:23:41 10° 84° (E) 2,618 - -50.5°
Exits shadow 02:24:42 - 90° (E) 2,888 10.9 -50.4°
Sets 02:26:50 0° 100° (E) 3,535 11.4 -50.0°
